EW6304 Weather Reports


Display with metric or nautical units.
time (UTC)temp
F
wind
direction
speed
MPH
gust
MPH
rain 1hr
in
rain 24hr
in
rain mn
in
humidity
%
barometer
mb
20260902214724 71 101 2.0 6.0 0.00 0.00 0.00 74 1019.9
20260902214225 71 94 2.0 6.0 0.00 0.00 0.00 73 1019.8
20260902213721 71 138 1.0 6.0 0.00 0.00 0.00 74 1019.6
20260902213223 71 103 2.0 6.0 0.00 0.00 0.00 73 1019.5
20260902212726 71 98 2.0 6.0 0.00 0.01 0.00 71 1019.6
20260902212719 71 126 2.0 3.0 0.00 0.00 0.00 72 1019.4
20260902211725 71 128 1.0 6.0 0.00 0.01 0.00 71 1019.7
20260902211220 72 101 1.0 4.0 0.00 0.01 0.00 71 1019.9
20260902210718 72 100 1.0 4.0 0.00 0.01 0.00 70 1020.0
20260902210218 72 107 1.0 6.0 0.00 0.01 0.00 70 1020.1
20260902205718 72 101 1.0 6.0 0.00 0.01 0.00 67 1020.1
20260902205222 72 121 1.0 5.0 0.00 0.01 0.00 66 1020.1
20260902205217 72 116 1.0 6.0 0.00 0.01 0.00 68 1020.1
20260902204717 72 101 1.0 6.0 0.00 0.01 0.00 65 1020.1
20260902204335 72 98 1.0 3.0 0.00 0.01 0.00 66 1020.1
20260902203215 72 97 1.0 3.0 0.00 0.01 0.00 65 1020.0
20260902202715 72 115 1.0 4.0 0.00 0.01 0.00 65 1020.1
20260902202216 73 94 1.0 4.0 0.00 0.01 0.00 67 1020.1
20260902201717 73 92 1.0 3.0 0.00 0.01 0.00 63 1020.0
20260902201218 73 115 2.0 6.0 0.00 0.01 0.00 64 1020.0
20260902200716 73 107 2.0 7.0 0.00 0.01 0.00 61 1019.9
20260902200215 73 96 2.0 7.0 0.00 0.01 0.00 59 1020.0
20260902195716 73 130 1.0 4.0 0.00 0.01 0.00 65 1020.1
20260902195216 73 101 1.0 4.0 0.00 0.01 0.00 63 1020.2
20260902194722 74 95 1.0 4.0 0.00 0.01 0.00 63 1020.3
20260902194716 73 119 1.0 4.0 0.00 0.01 0.00 62 1020.3
20260902194335 74 106 1.0 4.0 0.00 0.01 0.00 63 1020.3
20260902193216 74 86 1.0 3.0 0.00 0.01 0.00 63 1020.4
20260902192716 74 145 1.0 3.0 0.00 0.01 0.00 63 1020.5
20260902192216 74 97 1.0 3.0 0.00 0.01 0.00 60 1020.5
20260902191718 74 108 1.0 4.0 0.00 0.01 0.00 64 1020.5
20260902191217 74 78 2.0 5.0 0.00 0.01 0.00 63 1020.5
20260902190716 74 106 2.0 8.0 0.00 0.01 0.00 63 1020.4
20260902190218 74 109 2.0 8.0 0.00 0.01 0.00 62 1020.3
20260902185713 75 107 2.0 6.0 0.00 0.01 0.00 61 1020.3
20260902185214 75 103 2.0 6.0 0.00 0.01 0.00 62 1020.4
20260902184716 75 105 2.0 4.0 0.00 0.01 0.00 63 1020.3
20260902184216 75 98 2.0 6.0 0.00 0.01 0.00 63 1020.3
20260902183715 75 107 2.0 6.0 0.00 0.01 0.00 63 1020.2
20260902183214 75 101 2.0 4.0 0.00 0.01 0.00 64 1020.2
20260902182714 75 105 1.0 4.0 0.00 0.01 0.00 65 1020.3
20260902182214 76 109 2.0 4.0 0.00 0.01 0.00 67 1020.4
20260902181715 76 105 2.0 4.0 0.00 0.01 0.00 64 1020.3
20260902181215 75 80 2.0 7.0 0.00 0.01 0.00 67 1020.3
20260902180714 75 76 2.0 7.0 0.00 0.01 0.00 65 1020.3
20260902180219 74 111 1.0 7.0 0.00 0.02 0.00 66 1020.3
20260902180213 74 115 2.0 7.0 0.00 0.02 0.00 67 1020.3
20260902175214 74 90 1.0 3.0 0.00 0.02 0.00 68 1020.4
20260902174718 74 109 2.0 4.0 0.00 0.02 0.00 67 1020.6
20260902174712 74 114 2.0 4.0 0.00 0.02 0.00 68 1020.6
20260902173711 74 107 2.0 4.0 0.00 0.02 0.00 68 1020.6
20260902173212 74 126 2.0 6.0 0.00 0.02 0.00 67 1020.6
20260902172717 74 111 1.0 6.0 0.00 0.02 0.00 66 1020.8
20260902172711 74 85 1.0 6.0 0.00 0.02 0.00 66 1020.7
20260902172211 74 126 1.0 6.0 0.00 0.02 0.00 66 1020.8
20260902171830 74 105 2.0 7.0 0.00 0.02 0.00 70 1020.7
20260902170712 74 105 2.0 7.0 0.00 0.02 0.00 67 1020.7
20260902170217 74 107 2.0 7.0 0.00 0.02 0.00 69 1020.7
20260902170211 74 103 2.0 8.0 0.00 0.02 0.00 66 1020.6
20260902165710 74 70 2.0 8.0 0.00 0.02 0.00 64 1020.8
20260902164710 74 92 2.0 7.0 0.00 0.02 0.00 67 1020.9
20260902164209 74 81 2.0 8.0 0.00 0.02 0.00 70 1020.9
20260902163709 74 75 2.0 8.0 0.00 0.02 0.00 66 1020.8
20260902163216 74 75 2.0 6.0 0.00 0.02 0.00 70 1020.8
20260902163211 74 61 1.0 6.0 0.00 0.02 0.00 69 1020.8
20260902162211 73 65 2.0 6.0 0.00 0.02 0.00 70 1021.0
20260902161711 73 81 1.0 4.0 0.00 0.02 0.00 71 1020.9
20260902161210 73 102 2.0 6.0 0.00 0.02 0.00 70 1021.0
20260902160708 73 76 2.0 6.0 0.00 0.02 0.00 68 1021.1
20260902160213 73 88 1.0 6.0 0.00 0.02 0.00 69 1021.3
20260902160206 73 67 2.0 6.0 0.00 0.02 0.00 69 1021.1
20260902155208 73 76 1.0 3.0 0.00 0.02 0.00 74 1021.5
20260902154708 72 76 1.0 2.0 0.00 0.02 0.00 76 1021.4
20260902154207 72 76 1.0 2.0 0.00 0.02 0.00 76 1021.4
20260902153707 72 74 1.0 4.0 0.00 0.02 0.00 76 1021.4
20260902153213 72 96 1.0 7.0 0.00 0.02 0.00 77 1021.4
20260902153208 72 71 1.0 4.0 0.00 0.02 0.00 75 1021.4
20260902152705 72 59 1.0 7.0 0.00 0.02 0.00 76 1021.5
20260902151705 72 90 1.0 4.0 0.00 0.02 0.00 79 1021.5
20260902151203 71 85 2.0 4.0 0.00 0.02 0.00 79 1021.4
20260902150703 71 92 2.0 6.0 0.00 0.02 0.00 80 1021.4
20260902150203 71 86 1.0 7.0 0.00 0.02 0.00 79 1021.4
20260902145705 71 91 1.0 7.0 0.00 0.02 0.00 81 1021.4
20260902145204 71 116 1.0 7.0 0.00 0.02 0.00 81 1021.4
20260902144703 71 68 2.0 7.0 0.00 0.02 0.00 82 1021.4
20260902144204 70 82 2.0 7.0 0.00 0.02 0.00 81 1021.4
20260902143709 70 51 1.0 4.0 0.00 0.02 0.00 83 1021.3
20260902143705 70 94 1.0 2.0 0.00 0.02 0.00 83 1021.2
20260902142705 70 50 1.0 4.0 0.00 0.02 0.00 83 1021.1
20260902142204 70 107 1.0 5.0 0.00 0.02 0.00 82 1021.1
20260902141702 70 115 2.0 5.0 0.00 0.02 0.00 83 1021.0
20260902141202 69 95 2.0 8.0 0.00 0.02 0.00 83 1020.9
20260902140703 69 110 2.0 8.0 0.00 0.02 0.00 83 1020.7
20260902140204 69 124 2.0 6.0 0.00 0.02 0.00 84 1020.7
20260902135700 69 72 2.0 6.0 0.00 0.02 0.00 85 1020.6
20260902135207 69 114 2.0 7.0 0.00 0.02 0.00 85 1020.5
20260902135202 69 115 2.0 7.0 0.00 0.02 0.00 85 1020.6
20260902134200 68 112 2.0 6.0 0.00 0.02 0.00 86 1020.6
20260902133706 68 67 1.0 4.0 0.00 0.02 0.00 89 1020.5
20260902133700 68 118 1.0 5.0 0.00 0.02 0.00 88 1020.6
20260902132702 67 112 1.0 3.0 0.00 0.02 0.00 89 1020.5
20260902132201 67 112 2.0 3.0 0.00 0.02 0.00 89 1020.8
20260902131703 67 115 1.0 5.0 0.00 0.02 0.00 91 1020.9
20260902131202 67 115 1.0 5.0 0.00 0.02 0.00 93 1020.8
20260902130703 67 108 1.0 2.0 0.00 0.02 0.00 94 1020.6
20260902130202 66 108 1.0 3.0 0.00 0.03 0.00 94 1020.7
20260902125700 66 108 1.0 3.0 0.00 0.03 0.00 94 1020.8
20260902125200 66 82 1.0 2.0 0.00 0.03 0.00 95 1021.0
20260902124709 66 82 0.0 2.0 0.00 0.03 0.00 96 1021.0
20260902124701 66 82 1.0 2.0 0.00 0.03 0.00 95 1020.9
20260902124202 66 82 1.0 2.0 0.00 0.03 0.00 96 1020.9
20260902123200 66 82 0.0 2.0 0.00 0.03 0.00 96 1020.9
20260902122700 66 83 0.0 3.0 0.00 0.03 0.00 96 1020.9
20260902122201 66 83 0.0 3.0 0.00 0.03 0.00 96 1021.0
20260902121706 65 310 0.0 2.0 0.00 0.03 0.00 96 1021.2
20260902121702 66 310 0.0 1.0 0.00 0.03 0.00 96 1021.1
20260902121200 65 313 0.0 1.0 0.00 0.03 0.00 96 1021.1
20260902120658 65 310 0.0 1.0 0.00 0.03 0.00 96 1021.2
20260902115658 65 310 0.0 2.0 0.00 0.03 0.00 96 1021.2
20260902115158 65 310 1.0 2.0 0.00 0.03 0.00 96 1021.3
20260902114658 64 313 0.0 2.0 0.00 0.03 0.00 96 1021.3
20260902114202 63 310 0.0 1.0 0.00 0.03 0.00 96 1021.0
20260902114157 64 309 0.0 2.0 0.00 0.03 0.00 96 1021.1
20260902113656 64 309 1.0 2.0 0.00 0.03 0.00 96 1021.1
20260902112654 63 309 0.0 0.0 0.00 0.03 0.00 96 1021.0
20260902112152 63 309 0.0 1.0 0.00 0.03 0.00 96 1020.9
20260902111659 63 309 0.0 1.0 0.00 0.03 0.00 96 1020.8
20260902111653 63 309 0.0 1.0 0.00 0.03 0.00 96 1021.0
20260902111152 63 310 0.0 0.0 0.00 0.03 0.00 96 1020.9
20260902110816 62 309 0.0 1.0 0.00 0.03 0.00 96 1020.6
20260902105652 62 310 0.0 1.0 0.00 0.03 0.00 96 1020.5
20260902105154 62 310 0.0 1.0 0.00 0.03 0.00 96 1020.5
20260902104652 62 309 0.0 1.0 0.00 0.03 0.00 96 1020.5
20260902104154 62 309 0.0 1.0 0.00 0.03 0.00 96 1020.3
20260902103653 61 309 0.0 1.0 0.00 0.03 0.00 95 1020.4
20260902103150 62 309 0.0 1.0 0.00 0.03 0.00 95 1020.3
20260902102651 61 309 0.0 1.0 0.00 0.03 0.00 95 1020.3
20260902102148 61 309 0.0 1.0 0.00 0.03 0.00 96 1020.1
20260902101650 61 309 0.0 1.0 0.00 0.03 0.00 95 1020.1
20260902101149 61 309 0.0 1.0 0.00 0.03 0.00 95 1020.0
20260902100654 61 309 0.0 0.0 0.00 0.03 0.00 95 1019.8
20260902100648 61 309 0.0 1.0 0.00 0.03 0.00 95 1019.9
20260902095648 62 309 0.0 1.0 0.00 0.03 0.00 95 1019.9
20260902095148 61 309 0.0 1.0 0.00 0.03 0.00 96 1019.9
20260902094648 61 309 0.0 0.0 0.00 0.03 0.00 95 1019.9
20260902094146 61 309 0.0 0.0 0.00 0.03 0.00 95 1019.8
20260902093646 61 309 0.0 1.0 0.00 0.03 0.00 94 1019.9
20260902093146 61 309 0.0 1.0 0.00 0.03 0.00 94 1020.0
20260902092647 61 309 0.0 1.0 0.00 0.03 0.00 94 1020.0
20260902092145 61 309 0.0 1.0 0.00 0.03 0.00 95 1020.0
20260902091651 61 309 0.0 1.0 0.00 0.03 0.00 94 1019.8
20260902091646 62 309 0.0 1.0 0.00 0.03 0.00 95 1020.0
20260902090646 61 309 0.0 1.0 0.00 0.03 0.00 94 1019.7
20260902090145 62 309 0.0 0.0 0.00 0.03 0.00 94 1019.6
20260902085648 62 309 0.0 1.0 0.00 0.03 0.00 94 1019.7
20260902085145 62 309 0.0 1.0 0.00 0.03 0.00 94 1019.7
20260902084646 62 309 0.0 1.0 0.00 0.03 0.00 94 1019.6
20260902084151 62 309 0.0 1.0 0.00 0.03 0.00 94 1019.5
20260902084144 62 309 0.0 1.0 0.00 0.03 0.00 94 1019.5
20260902083144 62 309 0.0 1.0 0.00 0.03 0.00 94 1019.5
20260902082644 62 309 0.0 1.0 0.00 0.03 0.00 94 1019.5
20260902082144 62 309 0.0 1.0 0.00 0.03 0.00 94 1019.5
20260902081645 62 309 0.0 1.0 0.00 0.03 0.00 94 1019.6
20260902081145 62 309 0.0 0.0 0.00 0.03 0.00 94 1019.6
20260902080644 63 309 0.0 0.0 0.00 0.03 0.00 94 1019.7
20260902080144 63 309 0.0 1.0 0.00 0.03 0.00 94 1019.7
20260902075642 63 309 0.0 1.0 0.00 0.03 0.00 94 1019.7
20260902075142 63 309 0.0 2.0 0.00 0.03 0.00 94 1019.8
20260902074649 62 309 0.0 1.0 0.00 0.03 0.00 95 1019.8
20260902074644 62 309 0.0 2.0 0.00 0.03 0.00 95 1019.9
20260902073644 62 309 0.0 2.0 0.00 0.03 0.00 95 1019.6
20260902073143 62 309 1.0 2.0 0.00 0.03 0.00 95 1019.6
20260902072642 62 309 0.0 2.0 0.00 0.03 0.00 95 1019.5
20260902072148 62 309 0.0 1.0 0.00 0.03 0.00 95 1019.3
20260902072143 62 309 0.0 1.0 0.00 0.03 0.00 95 1019.3
20260902071141 62 309 0.0 1.0 0.00 0.03 0.00 95 1019.3
20260902070641 62 309 0.0 1.0 0.00 0.03 0.00 95 1019.4
20260902070141 62 309 0.0 2.0 0.00 0.03 0.00 95 1019.5
20260902065644 62 309 0.0 2.0 0.00 0.03 0.00 95 1019.5
20260902065141 62 309 0.0 2.0 0.00 0.03 0.00 95 1019.5
20260902064641 62 309 0.0 2.0 0.00 0.03 0.00 95 1019.5
20260902064141 62 309 0.0 2.0 0.00 0.03 0.00 95 1019.5
20260902063640 62 309 0.0 1.0 0.00 0.03 0.00 95 1019.4
20260902063141 62 309 0.0 1.0 0.00 0.03 0.00 95 1019.5
20260902062640 62 309 0.0 1.0 0.00 0.03 0.00 95 1019.5
20260902062145 62 309 0.0 0.0 0.00 0.03 0.00 95 1019.5
20260902062140 61 309 0.0 1.0 0.00 0.03 0.00 95 1019.5
20260902061140 62 309 0.0 0.0 0.00 0.03 0.00 96 1019.5
20260902060641 62 309 0.0 1.0 0.00 0.03 0.00 96 1019.5
20260902060151 61 309 0.0 1.0 0.00 0.03 0.00 96 1019.6
20260902060141 62 309 0.0 1.0 0.00 0.03 0.00 96 1019.6
20260902055140 61 309 0.0 1.0 0.00 0.03 0.00 95 1019.6
20260902054646 62 309 0.0 1.0 0.00 0.03 0.00 95 1019.4
20260902054641 61 309 0.0 1.0 0.00 0.03 0.00 95 1019.5
20260902054140 62 309 0.0 1.0 0.00 0.03 0.00 95 1019.4
20260902053141 61 309 0.0 0.0 0.00 0.03 0.00 95 1019.5
20260902052641 61 309 0.0 1.0 0.00 0.03 0.00 95 1019.5
20260902052142 62 309 0.0 1.0 0.00 0.03 0.00 95 1019.4
20260902051640 62 309 0.0 0.0 0.00 0.03 0.00 96 1019.5
20260902051139 62 309 0.0 3.0 0.00 0.03 0.00 96 1019.5
20260902050644 61 313 0.0 1.0 0.00 0.03 0.00 96 1019.5
20260902050640 61 309 0.0 3.0 0.00 0.03 0.00 96 1019.5
20260902045642 61 314 0.0 0.0 0.00 0.03 0.00 95 1019.2
20260902045638 61 314 0.0 1.0 0.00 0.03 0.00 95 1019.2
20260902044638 61 313 0.0 1.0 0.00 0.03 0.00 95 1019.1
20260902044137 62 314 0.0 1.0 0.00 0.03 0.00 95 1019.0
20260902043641 62 314 0.0 1.0 0.00 0.03 0.00 95 1018.6
20260902043635 62 314 0.0 1.0 0.00 0.03 0.00 95 1018.9
20260902043135 62 314 0.0 1.0 0.00 0.03 0.00 95 1018.7
20260902042135 62 314 0.0 0.0 0.00 0.03 0.00 95 1018.7
20260902041637 62 314 0.0 0.0 0.00 0.03 0.00 95 1018.7
20260902041135 62 314 0.0 0.0 0.00 0.03 0.00 96 1018.7
20260902040639 62 314 0.0 1.0 0.00 0.03 0.00 96 1018.5
20260902040634 62 314 0.0 1.0 0.00 0.03 0.00 96 1018.6
20260902035631 62 314 0.0 0.0 0.00 0.03 0.03 96 1018.6
20260902035130 62 314 0.0 0.0 0.00 0.03 0.03 96 1018.5
20260902034632 62 314 0.0 0.0 0.00 0.03 0.03 96 1018.5
20260902034132 62 314 0.0 0.0 0.00 0.03 0.03 96 1018.5
20260902033629 62 314 0.0 0.0 0.00 0.03 0.03 95 1018.4
20260902033130 62 314 0.0 1.0 0.00 0.03 0.03 95 1018.3
20260902032629 62 314 0.0 1.0 0.00 0.03 0.03 95 1018.3
20260902032133 62 314 0.0 1.0 0.00 0.03 0.03 95 1018.4
20260902032128 62 314 0.0 0.0 0.00 0.03 0.03 95 1018.3
20260902031627 62 314 0.0 1.0 0.00 0.03 0.03 95 1018.3
20260902030629 62 314 0.0 1.0 0.00 0.03 0.03 95 1018.5
20260902030129 62 317 0.0 1.0 0.00 0.03 0.03 95 1018.4
20260902025629 62 314 0.0 0.0 0.00 0.03 0.03 95 1018.5
20260902025128 62 314 0.0 0.0 0.00 0.03 0.03 95 1018.5
20260902024628 62 314 0.0 0.0 0.00 0.03 0.03 95 1018.6
20260902024127 62 314 0.0 0.0 0.00 0.03 0.03 95 1018.6
20260902023628 62 314 0.0 0.0 0.00 0.03 0.03 95 1018.4
20260902023126 62 314 0.0 1.0 0.00 0.03 0.03 95 1018.4
20260902022625 62 314 0.0 1.0 0.00 0.03 0.03 95 1018.5
20260902022125 62 314 0.0 1.0 0.00 0.03 0.03 95 1018.4
20260902021632 62 314 0.0 1.0 0.00 0.03 0.03 95 1018.3
20260902021627 62 314 0.0 1.0 0.00 0.03 0.03 95 1018.3
20260902020627 62 314 0.0 0.0 0.00 0.03 0.03 95 1018.3
20260902020128 62 313 0.0 1.0 0.00 0.03 0.03 95 1018.4
20260902015624 62 313 0.0 1.0 0.00 0.03 0.03 95 1018.4
20260902015126 62 313 0.0 1.0 0.00 0.03 0.03 95 1018.4
20260902014626 62 313 0.0 0.0 0.00 0.03 0.03 95 1018.5
20260902014124 62 313 0.0 0.0 0.00 0.03 0.03 95 1018.4
20260902013628 62 313 0.0 0.0 0.00 0.03 0.03 95 1018.1
20260902013622 62 313 0.0 0.0 0.00 0.03 0.03 95 1018.3
20260902012624 62 313 0.0 0.0 0.00 0.03 0.03 95 1018.1
20260902012125 62 313 0.0 0.0 0.00 0.03 0.03 95 1018.2
20260902011624 62 313 0.0 0.0 0.00 0.03 0.03 95 1018.3
20260902011126 62 313 0.0 0.0 0.00 0.03 0.03 94 1018.3
20260902010625 62 313 0.0 0.0 0.00 0.03 0.03 94 1018.4
20260902010123 62 313 0.0 0.0 0.00 0.03 0.03 94 1018.3
20260902005624 62 313 0.0 0.0 0.00 0.03 0.03 94 1018.3
20260902005122 62 313 0.0 0.0 0.00 0.03 0.03 94 1018.2
20260902004622 62 313 0.0 0.0 0.00 0.03 0.03 94 1018.0
20260902004119 62 313 0.0 0.0 0.00 0.03 0.03 94 1017.9
20260902003620 63 313 0.0 0.0 0.00 0.03 0.03 94 1018.0
20260902003124 63 313 0.0 0.0 0.00 0.03 0.03 94 1018.0
20260902003118 63 313 0.0 0.0 0.00 0.03 0.03 94 1018.0
20260902002116 63 313 0.0 0.0 0.00 0.03 0.03 94 1018.0
20260902001617 63 313 0.0 0.0 0.00 0.03 0.03 94 1018.0
20260902001117 63 313 0.0 0.0 0.00 0.03 0.03 94 1018.0
20260902000617 63 313 0.0 0.0 0.00 0.03 0.03 94 1018.1
20260902000117 63 313 0.0 0.0 0.00 0.03 0.03 94 1018.1
20260901235617 63 313 0.0 0.0 0.00 0.03 0.03 94 1018.0
20260901235118 63 313 0.0 0.0 0.00 0.03 0.03 94 1017.9
20260901234622 63 313 0.0 0.0 0.00 0.03 0.03 94 1017.8
20260901234617 63 313 0.0 0.0 0.00 0.03 0.03 94 1017.8
20260901233621 63 313 0.0 0.0 0.00 0.03 0.03 94 1017.8
20260901233616 63 313 0.0 0.0 0.00 0.03 0.03 94 1017.9
20260901233230 64 313 0.0 0.0 0.00 0.03 0.03 94 1017.9
20260901232617 63 313 0.0 0.0 0.00 0.03 0.03 94 1017.8
20260901231615 64 313 0.0 0.0 0.00 0.03 0.03 93 1017.9
20260901231116 64 313 0.0 0.0 0.00 0.03 0.03 93 1017.8
20260901230616 64 313 0.0 0.0 0.00 0.03 0.03 93 1017.6
20260901230120 64 313 0.0 1.0 0.00 0.03 0.03 93 1017.6
20260901230115 64 313 0.0 0.0 0.00 0.03 0.03 93 1017.5
20260901225120 64 313 0.0 1.0 0.00 0.03 0.03 93 1017.5
20260901225116 64 313 0.0 1.0 0.00 0.03 0.03 93 1017.6
20260901224614 64 313 0.0 1.0 0.00 0.03 0.03 93 1017.6
20260901223614 64 313 0.0 0.0 0.00 0.03 0.03 93 1017.5
20260901223115 64 313 0.0 1.0 0.00 0.03 0.03 93 1017.6
20260901222615 64 313 0.0 1.0 0.00 0.03 0.03 93 1017.6
20260901222116 64 313 0.0 1.0 0.01 0.03 0.03 93 1017.7
20260901221614 64 313 0.0 1.0 0.01 0.03 0.03 93 1017.8
20260901221117 64 313 0.0 1.0 0.01 0.03 0.03 93 1017.9
20260901220614 64 313 0.0 1.0 0.01 0.03 0.03 93 1018.0
20260901220116 64 313 0.0 1.0 0.01 0.03 0.03 92 1017.9
20260901215616 65 313 0.0 1.0 0.01 0.03 0.03 93 1017.9